CT1ETE-13 Weather Reports


Display with metric or nautical units.
time (UTC)temp
F
wind
direction
speed
MPH
gust
MPH
rain 1hr
in
rain 24hr
in
rain mn
in
humidity
%
barometer
mb
20260902033022 63 109 0.0 0.0 0.00 0.00 0.00 82 1020.2
20260902031521 63 109 0.0 3.0 0.00 0.00 0.00 82 1020.1
20260902004516 64 184 2.0 3.0 0.00 0.00 0.00 82 1020.9
20260901234512 64 224 1.0 2.0 0.00 0.00 0.00 82 1020.9
20260901211458 67 225 0.0 2.0 0.00 0.00 0.00 77 1020.6
20260901205958 67 225 0.0 2.0 0.00 0.00 0.00 77 1020.6
20260901204459 67 225 0.0 2.0 0.00 0.00 0.00 75 1020.5
20260901182958 75 216 5.0 10.0 0.00 0.00 0.00 61 1019.8
20260901162954 79 244 9.0 16.0 0.00 0.00 0.00 54 1019.1
20260901142953 80 225 5.0 11.0 0.00 0.00 0.00 53 1019.0
20260901125953 78 235 4.0 9.0 0.00 0.00 0.00 60 1019.6
20260901121452 76 211 4.0 12.0 0.00 0.00 0.00 65 1019.8
20260901114448 74 251 5.0 10.0 0.00 0.00 0.00 69 1020.2
20260901095954 70 235 3.0 7.0 0.00 0.00 0.00 77 1020.4
20260901094449 69 248 4.0 7.0 0.00 0.00 0.00 79 1020.4
20260901082942 64 230 5.0 8.0 0.00 0.00 0.00 84 1020.3
20260901081443 65 234 1.0 5.0 0.00 0.00 0.00 84 1020.1
20260901055938 61 136 3.0 4.0 0.00 0.01 0.00 76 1019.3
20260901052938 60 140 2.0 3.0 0.00 0.01 0.00 75 1019.3
20260901051438 60 140 1.0 2.0 0.00 0.01 0.00 78 1019.2